TimePST,TemperatureF,Dew PointF,Humidity,Sea Level PressureIn,VisibilityMPH,Wind Direction,Wind SpeedMPH,Gust SpeedMPH,PrecipitationIn,Events,Conditions,WindDirDegrees,DateUTC
12:09 AM,37.4,35.6,93,29.87,10.0,South,11.5,-,N/A,,Partly Cloudy,180,2014-03-05 08:09:00
12:20 AM,37.4,35.6,93,29.88,10.0,South,11.5,-,N/A,,Scattered Clouds,190,2014-03-05 08:20:00
12:58 AM,37.9,36.1,93,29.92,10.0,South,8.1,-,0.00,,Mostly Cloudy,190,2014-03-05 08:58:00
1:58 AM,38.5,36.7,93,29.91,10.0,South,10.4,-,N/A,,Mostly Cloudy,170,2014-03-05 09:58:00
2:02 AM,39.2,37.4,93,29.85,10.0,South,12.7,-,N/A,,Mostly Cloudy,170,2014-03-05 10:02:00
2:11 AM,39.2,37.4,93,29.85,10.0,South,13.8,-,N/A,,Mostly Cloudy,170,2014-03-05 10:11:00
2:58 AM,39.6,37.2,91,29.88,10.0,South,12.7,-,0.00,,Mostly Cloudy,170,2014-03-05 10:58:00
3:26 AM,39.2,37.4,93,29.81,10.0,South,12.7,-,N/A,Rain,Light Rain,170,2014-03-05 11:26:00
3:34 AM,39.2,37.4,93,29.81,10.0,SSE,10.4,-,N/A,,Scattered Clouds,160,2014-03-05 11:34:00
3:58 AM,40.3,37.2,89,29.83,10.0,SSE,10.4,-,0.00,,Mostly Cloudy,160,2014-03-05 11:58:00
4:24 AM,41.0,37.4,87,29.78,10.0,South,11.5,-,N/A,Rain,Light Rain,170,2014-03-05 12:24:00
4:58 AM,39.9,37.0,89,29.81,10.0,SSE,8.1,-,0.00,Rain,Light Rain,160,2014-03-05 12:58:00
5:58 AM,39.9,36.7,88,29.79,10.0,South,4.6,-,0.01,Rain,Light Rain,180,2014-03-05 13:58:00
6:35 AM,39.2,37.4,93,29.76,4.0,Variable,4.6,-,N/A,Rain,Rain,0,2014-03-05 14:35:00
6:40 AM,39.2,37.4,93,29.76,4.0,Variable,2.3,-,N/A,Rain,Light Rain,0,2014-03-05 14:40:00
6:45 AM,39.2,37.4,93,29.76,4.0,ESE,3.5,-,N/A,Rain,Light Rain,110,2014-03-05 14:45:00
6:55 AM,39.2,37.4,93,29.75,6.0,SE,4.6,-,N/A,Rain,Light Rain,140,2014-03-05 14:55:00
6:58 AM,39.0,37.2,93,29.79,6.0,ESE,3.5,-,0.06,Rain,Light Rain,120,2014-03-05 14:58:00
7:03 AM,39.2,37.4,93,29.75,6.0,East,2.3,-,N/A,Rain,Rain,100,2014-03-05 15:03:00
7:58 AM,37.9,37.2,97,29.77,7.0,East,5.8,-,0.05,Rain,Light Rain,100,2014-03-05 15:58:00
8:58 AM,39.6,38.5,96,29.75,7.0,SSE,10.4,-,0.07,Rain,Light Rain,160,2014-03-05 16:58:00
9:26 AM,41.0,39.2,93,29.72,10.0,South,15.0,-,N/A,Rain,Light Rain,180,2014-03-05 17:26:00
9:48 AM,42.8,41.0,93,29.72,9.0,South,17.3,25.3,N/A,Rain,Light Rain,190,2014-03-05 17:48:00
9:58 AM,42.1,41.2,97,29.75,10.0,South,17.3,24.2,0.02,Rain,Light Rain,180,2014-03-05 17:58:00
10:03 AM,42.8,41.0,93,29.71,10.0,South,15.0,-,N/A,Rain,Light Rain,180,2014-03-05 18:03:00
10:38 AM,44.6,42.8,93,29.70,10.0,South,16.1,-,N/A,,Mostly Cloudy,190,2014-03-05 18:38:00
10:58 AM,46.2,43.5,90,29.74,10.0,South,16.1,27.6,0.00,,Partly Cloudy,190,2014-03-05 18:58:00
11:58 AM,50.4,45.5,83,29.73,10.0,SSW,20.7,28.8,N/A,,Partly Cloudy,200,2014-03-05 19:58:00
12:58 PM,51.8,45.1,78,29.73,10.0,SSW,20.7,29.9,N/A,,Partly Cloudy,210,2014-03-05 20:58:00
1:58 PM,53.1,46.4,78,29.70,10.0,SSW,20.7,28.8,N/A,,Partly Cloudy,210,2014-03-05 21:58:00
2:43 PM,51.8,44.6,76,29.68,10.0,SSW,21.9,28.8,N/A,,Mostly Cloudy,210,2014-03-05 22:43:00
2:58 PM,50.9,45.0,80,29.72,10.0,SSW,18.4,29.9,N/A,,Overcast,210,2014-03-05 22:58:00
3:58 PM,49.6,45.3,85,29.70,10.0,SSW,18.4,23.0,N/A,,Overcast,200,2014-03-05 23:58:00
4:38 PM,50.0,46.4,87,29.66,10.0,South,13.8,-,N/A,,Overcast,190,2014-03-06 00:38:00
4:58 PM,49.6,45.3,85,29.68,10.0,SSW,17.3,21.9,N/A,,Mostly Cloudy,200,2014-03-06 00:58:00
5:58 PM,48.0,44.2,87,29.67,10.0,South,9.2,-,N/A,,Mostly Cloudy,180,2014-03-06 01:58:00
6:08 PM,48.2,44.6,87,29.64,10.0,SSE,6.9,-,N/A,Rain,Light Rain,150,2014-03-06 02:08:00
6:58 PM,46.4,45.1,95,29.67,10.0,SSE,10.4,-,0.03,Rain,Rain,150,2014-03-06 02:58:00
7:58 PM,43.7,43.0,97,29.63,7.0,SE,9.2,-,0.08,Rain,Rain,140,2014-03-06 03:58:00
8:23 PM,42.8,42.8,100,29.58,6.0,SSE,12.7,-,N/A,Rain,Rain,150,2014-03-06 04:23:00
8:28 PM,44.6,42.8,93,29.58,6.0,SE,12.7,-,N/A,Rain,Light Rain,140,2014-03-06 04:28:00
8:43 PM,42.8,42.8,100,29.58,7.0,SSE,11.5,-,N/A,Rain,Rain,160,2014-03-06 04:43:00
8:48 PM,42.8,42.8,100,29.58,6.0,SSE,12.7,-,N/A,Rain,Rain,150,2014-03-06 04:48:00
8:53 PM,42.8,42.8,100,29.58,5.0,SSE,10.4,-,N/A,Rain,Rain,150,2014-03-06 04:53:00
8:58 PM,43.5,43.0,98,29.61,5.0,SSE,10.4,-,0.14,Rain,Heavy Rain,150,2014-03-06 04:58:00
9:03 PM,42.8,42.8,100,29.57,5.0,SSE,11.5,-,N/A,Rain,Rain,150,2014-03-06 05:03:00
9:28 PM,42.8,42.8,100,29.55,8.0,SSE,12.7,-,N/A,Rain,Light Rain,160,2014-03-06 05:28:00
9:38 PM,42.8,42.8,100,29.55,9.0,SSE,11.5,-,N/A,Rain,Light Rain,150,2014-03-06 05:38:00
9:46 PM,42.8,42.8,100,29.55,10.0,SSE,10.4,-,N/A,Rain,Light Rain,150,2014-03-06 05:46:00
9:56 PM,42.8,42.8,100,29.54,8.0,SSE,8.1,-,N/A,Rain,Light Rain,160,2014-03-06 05:56:00
9:58 PM,43.5,43.0,98,29.57,8.0,SSE,10.4,-,0.07,Rain,Light Rain,160,2014-03-06 05:58:00
10:08 PM,42.8,42.8,100,29.54,10.0,SSE,11.5,-,N/A,Rain,Light Rain,160,2014-03-06 06:08:00
10:13 PM,42.8,42.8,100,29.54,10.0,SSE,9.2,-,N/A,Rain,Light Rain,160,2014-03-06 06:13:00
10:18 PM,42.8,42.8,100,29.53,10.0,SSE,11.5,-,N/A,Rain,Light Rain,160,2014-03-06 06:18:00
10:45 PM,42.8,42.8,100,29.52,9.0,SSE,12.7,-,N/A,Rain,Light Rain,160,2014-03-06 06:45:00
10:49 PM,42.8,42.8,100,29.51,9.0,SSE,12.7,-,N/A,Rain,Light Rain,160,2014-03-06 06:49:00
10:58 PM,43.3,43.2,99,29.54,10.0,SSE,12.7,-,0.04,Rain,Light Rain,160,2014-03-06 06:58:00
11:01 PM,42.8,42.8,100,29.52,9.0,South,13.8,-,N/A,Rain,Light Rain,170,2014-03-06 07:01:00
11:21 PM,44.6,44.6,100,29.52,7.0,South,16.1,25.3,N/A,Rain,Rain,180,2014-03-06 07:21:00
11:26 PM,44.6,44.6,100,29.52,9.0,South,15.0,25.3,N/A,Rain,Light Rain,170,2014-03-06 07:26:00
11:27 PM,44.6,44.6,100,29.51,9.0,South,13.8,25.3,N/A,Rain,Light Rain,180,2014-03-06 07:27:00
11:58 PM,46.2,44.6,94,29.54,10.0,South,19.6,28.8,0.09,Rain,Light Rain,190,2014-03-06 07:58:00